Temp
24 25 25 24 23 21 23 25 29 29 31 32 34 32 30 31 31 29 27 27 28 28 27 27 27 27 27 27 27 27 27 26 26 25 25 24 23 23 23 23 23 22 22 23 23 23 24 24 24
24 25 24 21 22 22 23 26 28 29 31 32 34 31 31 29 30 26 26 26 29 28 27 27 27 26 26 27 27 27 26 26 26 25 25 24 24 23 23 23 22 22 23 23 23 24 24 24 24
24 24 21 21 19 22 23 27 29 31 32 33 35 33 32 29 29 27 29 26 28 26 27 27 26 26 26 27 27 26 26 26 26 25 24 24 23 23 23 23 22 22 22 23 24 24 24 24 24
23 22 20 21 21 23 26 28 30 30 31 32 34 31 32 32 29 29 26 26 27 26 26 26 26 26 26 26 26 26 26 26 26 25 24 24 23 23 22 22 22 22 22 22 23 24 24 24 24
23 18 20 20 22 23 26 28 29 29 29 31 32 32 30 31 31 27 27 28 27 25 25 26 26 25 25 25 26 26 26 26 25 25 24 24 23 23 22 22 22 22 22 22 23 23 24 24 24
20 18 18 19 21 24 25 27 29 29 31 31 32 30 29 30 28 27 27 26 27 27 25 25 25 25 25 25 25 25 25 25 25 24 24 23 23 22 22 22 22 22 22 22 22 22 23 24 24
19 16 18 19 22 23 26 28 29 30 31 31 31 30 29 29 28 27 27 27 28 27 26 25 24 24 24 24 24 25 25 25 25 24 24 23 23 22 21 21 21 21 22 22 22 22 23 23 23
19 18 20 20 22 22 26 30 28 28 33 34 33 30 28 29 28 27 27 27 26 26 26 25 24 24 23 23 24 24 24 24 24 24 23 23 23 22 21 21 21 21 22 22 22 22 23 23 23
22 18 17 20 22 23 26 28 28 30 32 32 31 30 30 31 31 28 26 24 23 22 24 25 25 24 24 24 23 23 23 23 23 23 23 23 22 22 22 22 21 21 22 22 22 22 23 23 23
19 18 19 21 23 24 26 26 27 29 31 30 31 31 31 32 31 27 25 24 23 21 21 22 22 23 24 24 24 23 23 23 23 23 23 22 22 22 22 22 22 22 22 22 22 22 23 23 24
19 21 21 24 24 24 25 27 28 29 29 30 31 31 31 31 32 30 27 24 22 21 21 21 22 23 23 22 23 22 23 23 23 23 23 23 22 22 22 22 22 22 22 22 23 23 22 22 22
20 22 22 23 24 24 25 27 28 28 28 28 28 30 29 29 28 29 22 21 20 21 21 22 22 23 22 22 24 25 25 24 24 24 23 23 23 22 22 22 22 22 23 23 23 23 23 23 24
19 21 23 23 24 25 25 25 26 27 28 27 28 29 29 29 28 25 20 19 19 21 22 23 23 24 26 24 25 24 25 24 25 24 24 24 23 23 23 23 22 23 23 23 23 23 23 24 23
21 23 23 23 23 24 25 26 24 26 27 28 28 28 28 28 29 20 19 19 19 21 22 23 24 25 24 25 24 24 22 24 23 25 24 24 23 23 23 23 23 23 24 23 23 22 21 21 21
22 22 23 23 23 23 24 24 26 26 26 27 27 27 27 27 28 24 19 19 20 20 21 23 25 25 26 26 24 23 23 24 24 24 24 24 23 23 23 23 23 22 22 23 22 21 21 20 20
22 22 21 24 24 25 24 25 26 26 25 26 26 26 27 26 27 28 20 19 19 20 20 23 25 24 23 22 23 24 24 24 24 24 24 24 23 23 23 24 24 23 22 22 22 22 22 20 20
19 20 20 22 23 25 24 26 26 26 26 25 25 25 26 25 25 25 21 19 19 22 20 23 22 22 22 22 23 24 23 23 23 24 25 25 24 23 23 24 24 23 21 21 22 22 20 19 19
20 19 22 21 25 23 24 23 24 25 26 24 25 25 25 25 25 24 21 20 20 21 20 21 21 21 21 23 23 24 24 24 24 23 23 24 23 23 24 24 22 22 21 21 21 21 20 20 20
22 21 21 23 24 24 23 24 25 26 25 25 24 25 24 24 25 24 22 21 19 18 18 21 21 21 22 22 22 22 23 24 25 24 23 23 23 23 23 23 22 21 20 21 21 20 20 20 21
22 21 21 22 23 23 24 23 24 25 26 25 24 24 24 24 25 21 23 22 20 20 20 20 21 22 23 22 24 24 24 25 25 24 23 23 23 23 22 22 21 21 19 19 19 20 20 19 20
22 21 21 21 24 24 24 22 24 25 26 27 26 25 25 23 20 21 21 20 21 22 21 21 22 23 24 25 24 24 23 23 22 21 21 22 21 21 21 21 21 19 19 20 20 19 19 18 19
21 23 23 23 22 20 23 21 23 25 26 27 26 23 20 20 19 19 18 18 18 18 19 20 21 22 22 22 23 23 22 20 20 20 20 20 20 20 20 20 20 19 18 18 17 18 18 17 18
22 24 24 24 21 21 23 20 21 23 25 27 26 23 21 20 19 18 17 17 17 18 19 19 20 21 21 21 22 22 20 19 19 19 19 19 19 19 18 19 18 18 17 16 16 16 16 16 17
24 24 23 23 21 19 22 20 20 23 25 26 24 22 20 19 18 17 17 17 17 18 18 18 19 18 19 20 20 20 19 18 18 18 17 17 17 17 17 17 17 16 16 16 16 16 16 15 15
23 22 19 18 19 20 21 20 20 23 24 26 22 20 19 19 18 18 17 17 16 17 18 18 18 18 18 18 18 18 18 18 17 17 16 16 15 15 14 15 15 15 14 14 15 15 15 14 14
22 22 17 18 17 19 21 20 22 23 24 25 22 20 19 19 19 18 17 17 17 17 18 18 18 17 17 17 17 17 17 17 16 16 15 14 14 14 14 13 13 13 13 13 13 13 13 12 12
23 22 22 19 18 18 19 21 23 21 21 20 19 19 19 18 18 17 17 17 16 17 18 18 18 17 17 17 17 16 16 15 15 14 14 14 14 13 13 13 13 12 12 12 12 11 11 11 11
23 23 21 18 17 18 18 20 20 17 17 20 19 19 18 18 18 17 16 16 17 18 18 18 18 17 17 17 16 16 15 15 14 14 14 13 13 13 13 12 12 12 11 11 11 11 11 10 10
23 23 21 18 16 15 17 17 18 16 15 16 18 19 18 17 17 17 17 17 17 18 17 17 17 16 16 16 16 15 15 14 14 14 13 13 13 13 13 12 12 11 11 11 10 10 10 10 10
21 20 20 19 18 17 16 16 17 16 16 15 15 16 17 18 18 18 17 15 15 15 16 15 15 15 15 15 15 15 15 14 14 14 13 13 13 12 12 12 11 11 10 10 10 10 10 10 9
Height
783 782 783 784 809 817 818 795 767 763 760 736 726 729 740 738 748 772 736 741 743 749 755 760 766 767 768 768 769 773 776 779 782 784 787 790 793 794 796 798 799 800 802 803 803 804 804 805 806
780 782 783 790 818 829 815 776 771 761 746 732 728 731 733 747 729 736 739 743 744 747 752 758 765 769 770 772 772 775 778 780 782 785 789 791 793 795 798 800 801 801 802 803 805 805 806 806 808
779 781 789 801 820 821 803 766 760 748 735 737 731 724 730 740 731 732 732 734 743 748 751 756 762 770 772 774 775 777 780 781 784 787 790 792 794 796 798 800 802 803 804 804 804 805 807 808 809
778 781 790 806 809 789 773 757 754 753 740 733 729 739 727 726 724 727 734 736 739 748 752 756 761 768 772 774 776 778 780 781 783 787 790 793 795 797 799 801 801 803 805 807 808 808 809 810 811
778 788 806 808 799 780 761 751 754 756 752 741 732 739 736 727 726 728 732 735 743 750 753 757 761 768 772 775 776 778 781 782 785 788 791 794 796 798 799 801 803 805 807 808 808 809 810 811 811
786 790 815 815 796 774 763 750 754 751 741 735 736 735 733 725 725 730 733 736 742 748 754 758 761 767 772 776 779 781 784 786 788 789 791 794 797 800 802 803 804 805 808 809 810 810 811 811 812
787 800 806 801 790 781 762 747 751 742 736 734 723 741 733 730 728 729 735 739 744 748 752 758 763 768 772 776 779 782 785 787 789 790 791 792 795 800 803 806 806 807 807 809 811 812 812 812 812
779 789 790 788 790 784 753 746 739 739 729 710 710 736 742 724 729 732 735 738 742 747 752 757 763 768 773 776 778 782 785 787 789 791 793 795 798 800 801 804 805 807 809 808 810 812 813 814 813
768 792 800 787 780 766 751 753 737 727 725 719 719 715 719 723 727 733 739 743 746 750 754 758 762 765 770 775 777 780 784 787 790 794 795 795 797 799 800 802 805 806 808 808 809 811 813 815 815
775 787 780 765 760 760 752 754 749 740 731 730 726 721 721 725 727 733 736 738 746 752 757 758 761 765 768 770 774 777 782 786 788 791 794 796 797 798 801 802 803 805 807 809 809 810 812 812 813
764 763 759 752 751 751 751 751 742 744 745 731 731 728 725 724 725 728 736 738 744 751 756 763 769 772 768 769 773 778 780 784 788 791 792 793 795 797 800 802 803 804 806 808 808 809 810 813 814
766 749 751 749 745 748 750 744 746 741 736 725 722 721 725 728 727 727 731 737 742 748 754 758 769 769 770 772 772 772 776 778 779 784 789 790 792 794 797 798 801 803 803 805 807 809 811 813 813
759 751 745 744 743 741 744 745 746 739 726 723 721 719 721 724 728 731 734 737 740 743 750 760 767 769 760 773 773 774 772 773 775 779 785 788 789 793 796 797 797 798 800 802 804 807 809 809 811
743 743 743 741 743 739 747 739 741 734 724 722 723 721 720 722 724 732 736 740 742 743 744 752 759 761 760 767 773 772 774 778 780 778 784 786 788 792 795 796 795 796 797 799 802 805 807 808 810
738 749 740 739 739 743 739 742 733 727 724 722 722 720 718 718 720 725 731 735 735 742 741 747 749 751 753 755 759 763 774 774 775 776 781 784 788 792 793 794 793 795 795 797 798 800 801 804 802
744 745 755 734 733 730 738 732 725 719 724 724 720 718 717 717 716 719 725 730 736 740 744 743 745 746 751 755 764 769 770 772 774 777 778 779 785 789 790 791 791 790 793 795 797 798 797 802 798
748 752 753 743 729 729 732 729 721 714 717 721 718 716 716 715 713 716 720 725 732 735 742 741 743 745 750 759 765 767 771 772 774 776 776 777 782 786 788 789 790 790 791 792 794 793 792 796 795
748 751 737 744 726 729 729 730 722 714 714 717 715 713 714 712 709 711 718 723 728 733 740 740 742 747 752 759 764 768 770 771 772 775 779 780 782 785 787 786 789 787 788 790 792 791 792 793 794
729 735 739 729 720 727 730 724 720 709 712 713 712 709 712 709 701 707 714 721 729 737 741 741 743 746 752 757 762 766 767 768 772 776 778 781 782 783 784 784 785 785 788 790 790 790 791 791 789
726 731 736 728 716 726 723 725 713 706 703 703 704 703 704 704 704 708 716 723 728 732 738 741 742 747 753 757 761 763 765 769 770 773 776 779 779 781 782 784 784 784 787 787 788 789 789 787 787
719 726 731 736 716 717 721 731 716 700 695 694 694 697 698 702 708 711 716 721 726 731 737 741 743 746 750 754 757 761 764 769 772 775 778 777 779 780 780 781 781 782 784 787 787 788 787 786 784
720 711 716 721 730 749 717 749 720 704 699 694 695 699 705 706 711 714 720 724 727 729 734 739 742 748 750 755 758 762 764 769 775 777 777 778 778 777 779 780 780 782 785 786 786 786 785 785 782
705 704 710 713 729 733 724 743 728 708 706 698 697 703 711 705 711 718 722 727 730 735 737 741 745 749 752 757 759 761 767 771 775 779 778 779 780 780 782 783 783 784 785 785 786 787 786 784 782
691 702 707 711 727 745 724 737 737 714 704 696 700 704 711 716 717 723 729 731 735 739 742 745 745 754 755 758 763 764 768 773 776 780 781 783 783 783 784 784 784 785 785 786 786 785 784 781 778
693 708 738 746 742 735 719 732 725 701 695 691 704 708 716 720 722 724 730 737 740 742 745 747 749 755 758 760 764 766 769 773 776 780 782 783 785 786 786 785 785 785 785 784 783 782 779 778 776
691 698 732 742 747 734 711 727 714 691 686 686 697 710 710 719 726 730 733 738 743 748 752 756 758 758 763 765 767 771 773 776 778 780 781 783 783 784 785 784 783 783 782 781 780 778 778 776 773
680 691 690 717 725 730 727 708 696 695 695 700 707 712 717 724 725 731 737 744 748 752 756 758 762 764 767 768 771 774 777 779 780 781 782 781 781 781 781 781 781 781 781 781 780 778 776 773 771
667 672 700 712 739 739 731 720 719 722 721 708 709 713 720 721 724 731 738 741 749 753 757 762 765 767 768 770 773 776 778 779 780 780 780 779 779 779 780 780 780 779 778 777 776 774 772 770 767
667 671 681 702 715 743 744 739 716 722 724 726 716 715 714 723 728 730 734 741 751 757 760 764 768 770 771 772 775 776 778 779 779 779 779 778 777 778 778 778 777 776 774 773 772 770 767 765 762
664 675 677 695 713 716 727 741 715 719 715 729 725 726 727 722 727 729 726 743 756 762 764 766 769 772 774 775 776 777 778 778 777 777 778 777 776 776 776 776 775 774 771 770 768 765 763 760 756
Wind_Speed
10 9 4 2 3 4 4 8 4 12 8 5 3 6 10 2 4 4 3 27 31 37 33 31 28 27 27 26 25 24 22 21 19 18 18 18 18 19 20 20 18 16 14 14 14 14 14 14 15
8 3 2 2 4 1 6 5 15 7 11 12 3 3 4 3 5 8 13 19 35 38 35 32 29 26 25 24 24 23 22 20 19 18 18 18 18 18 19 17 16 15 14 12 12 13 14 14 14
3 2 3 4 4 6 7 6 7 11 11 6 4 5 4 7 3 15 14 32 40 37 36 34 29 26 24 23 23 22 21 20 18 17 18 18 18 18 17 16 14 12 11 11 12 13 13 13 13
1 4 4 3 8 9 10 12 0 8 13 9 5 6 4 13 9 14 31 37 38 35 34 32 30 26 23 23 22 21 20 20 19 18 17 17 17 17 16 15 14 12 11 10 10 12 13 12 12
1 3 1 3 8 7 10 15 9 13 8 14 7 4 5 5 14 27 34 35 35 33 31 30 29 25 22 21 21 21 19 19 18 17 16 16 17 17 16 14 12 10 9 9 10 11 12 11 11
2 3 2 6 7 7 8 12 8 11 15 17 3 6 5 19 29 31 32 35 34 33 30 29 27 25 22 19 18 18 17 17 17 16 15 15 15 15 14 13 11 9 8 8 9 10 11 11 10
5 4 6 5 5 7 11 3 7 17 15 10 7 7 1 10 29 35 34 32 30 31 31 27 24 21 19 18 17 17 17 17 17 15 15 15 15 14 13 11 9 8 8 8 9 10 10 10 9
5 4 4 6 7 9 8 3 7 7 4 3 5 5 6 7 31 29 34 32 31 32 31 29 25 22 18 17 16 17 17 16 16 15 13 12 12 13 13 12 11 9 8 9 9 9 10 10 9
3 2 5 7 8 8 3 6 8 8 1 3 4 7 9 24 28 27 25 23 26 26 31 31 28 25 21 18 17 17 17 15 14 13 12 12 12 12 13 12 11 10 9 9 10 10 10 11 11
6 6 9 7 8 8 2 4 14 6 4 3 4 6 9 16 18 19 21 22 22 21 24 30 28 25 22 22 20 20 18 16 15 15 14 12 11 11 12 12 11 10 9 9 11 11 12 13 14
6 10 7 4 12 11 11 4 4 5 5 3 3 4 1 3 4 9 14 24 25 27 24 22 21 19 20 21 21 20 19 17 16 16 16 15 13 12 10 11 11 11 10 11 12 13 15 16 16
5 5 8 6 9 6 4 3 7 5 7 7 8 4 6 4 4 6 15 29 33 34 31 29 22 18 13 14 20 23 22 23 23 21 19 18 17 15 13 11 10 11 11 14 15 15 16 17 18
7 11 9 9 13 17 5 13 8 10 10 7 9 6 5 4 5 9 24 27 34 41 38 34 30 25 16 13 22 24 26 27 25 22 20 18 16 17 15 12 15 15 13 15 17 17 17 18 20
6 19 18 12 12 14 12 14 9 9 10 8 8 8 7 5 5 16 22 25 28 36 44 43 30 20 21 29 23 26 24 23 23 17 21 20 16 16 16 13 16 18 15 14 17 16 18 20 19
15 12 12 11 9 9 6 15 18 9 9 11 11 10 9 8 8 13 26 32 41 40 46 37 31 36 33 35 35 27 24 23 22 21 20 17 17 15 15 12 14 15 11 11 10 9 2 4 3
6 11 16 15 9 8 10 27 7 9 9 12 12 9 8 9 10 12 30 35 35 40 41 43 38 40 39 35 28 19 19 25 26 24 19 20 21 18 16 16 13 12 12 9 8 9 7 8 6
4 9 6 6 8 7 13 20 8 11 9 12 10 11 9 9 9 10 32 38 41 46 42 46 40 42 42 30 23 20 18 24 28 21 13 16 24 22 18 19 18 15 8 12 13 11 9 4 5
10 5 3 7 5 9 13 10 8 11 9 11 11 11 9 9 11 18 29 37 43 44 40 43 40 36 37 32 24 25 16 14 14 12 9 12 12 12 14 17 17 14 10 8 8 9 6 7 7
8 7 6 6 11 7 9 13 12 17 8 12 10 12 11 11 12 20 31 35 30 25 29 33 31 31 34 27 27 20 18 15 12 8 5 6 5 5 8 13 13 10 10 12 9 6 9 11 14
11 11 8 7 9 6 13 13 12 14 11 10 10 13 11 7 3 9 21 23 26 29 30 28 28 30 28 25 26 17 15 12 9 4 4 4 3 5 7 8 8 10 13 11 11 12 12 11 11
16 15 9 8 15 5 6 8 5 7 7 7 5 5 2 7 12 14 17 22 28 29 31 29 28 28 25 20 16 12 14 12 9 10 8 4 3 3 5 6 6 8 13 18 18 15 16 16 12
17 10 15 15 10 6 6 7 5 5 6 5 6 8 10 16 14 15 15 20 21 21 28 25 24 20 14 17 21 19 15 18 16 17 15 12 9 11 9 4 1 4 8 12 14 13 15 15 16
15 15 16 18 6 4 4 3 7 3 5 4 6 11 7 17 18 16 16 23 25 28 29 27 25 21 18 19 18 19 22 21 18 20 23 20 17 15 13 11 9 8 5 1 4 8 12 14 20
14 12 11 6 6 10 11 7 5 2 5 3 8 15 15 12 16 16 20 23 24 29 27 27 29 26 25 24 22 23 24 20 20 17 18 16 13 10 8 7 6 4 3 3 5 8 9 12 15
14 15 6 4 6 8 8 5 7 5 5 5 17 16 15 13 13 16 15 15 20 26 27 27 28 26 24 24 21 19 19 17 16 12 11 13 13 11 9 6 6 7 8 9 11 13 15 16 16
20 14 5 7 4 4 4 5 5 7 6 1 18 17 21 19 13 13 12 17 20 24 25 24 24 24 21 22 21 18 14 13 11 10 9 9 9 8 7 8 8 8 9 10 11 12 13 14 15
20 17 11 6 3 4 1 4 4 3 6 15 20 19 18 14 16 17 15 19 22 25 24 23 20 20 19 19 16 15 13 11 11 9 7 8 7 8 8 9 9 8 9 10 13 15 17 19 21
23 7 7 1 7 4 1 3 4 6 7 10 18 18 14 16 19 18 16 23 24 27 23 19 16 16 16 14 12 12 11 9 8 7 7 6 5 5 8 10 11 12 12 11 12 16 17 19 22
4 19 2 7 5 6 5 4 3 7 7 3 7 11 19 16 16 16 15 22 25 23 23 20 18 16 14 11 9 9 10 8 8 7 5 5 4 6 9 12 14 14 14 14 16 19 20 22 23
6 3 8 7 3 3 5 3 6 7 14 5 5 6 7 15 17 16 17 23 21 23 26 26 23 20 16 13 8 7 6 4 4 4 4 4 5 6 10 12 14 16 16 17 19 21 21 23 26
Wind_Direction
289 300 314 6 74 70 249 257 220 265 318 275 312 148 112 66 167 198 313 164 173 164 166 168 169 166 161 156 151 147 145 142 140 140 141 140 138 139 142 143 142 140 135 136 140 142 141 137 136
304 316 140 78 111 163 256 235 254 281 253 278 180 145 42 102 95 126 120 179 168 164 164 168 170 171 165 159 154 150 149 146 145 145 147 148 146 147 149 149 148 146 145 142 145 146 147 143 139
317 192 106 150 161 201 235 218 261 277 309 327 299 100 90 130 105 159 182 165 166 165 166 167 170 173 168 162 158 154 153 151 150 150 152 153 152 152 154 154 156 157 158 156 154 154 153 148 146
20 35 11 141 210 249 238 267 189 312 319 314 283 86 69 201 171 160 157 160 163 167 168 167 170 174 171 167 162 160 160 159 157 157 158 159 159 159 160 159 160 162 163 166 164 161 159 155 157
190 70 198 215 242 256 259 263 288 275 252 272 272 170 127 180 163 152 158 160 167 168 170 168 169 173 173 171 168 167 167 165 164 163 163 166 167 167 165 165 164 167 174 179 174 171 170 167 168
13 103 115 223 244 265 286 280 293 270 267 265 257 144 179 149 143 154 158 162 170 168 170 169 169 172 174 175 174 172 172 171 172 169 168 172 175 176 173 172 174 177 187 189 188 186 183 181 183
149 112 214 204 236 274 256 351 280 281 277 240 182 145 89 145 159 160 161 163 169 171 167 168 169 172 176 177 178 179 180 180 180 178 176 177 181 184 186 188 190 195 197 196 198 200 200 200 205
159 121 210 213 227 267 269 292 264 261 270 358 143 151 174 189 164 157 161 165 166 169 171 171 170 171 173 176 180 185 187 187 186 185 183 184 189 192 196 202 207 211 213 203 204 211 215 221 224
145 185 212 222 198 236 340 356 305 288 15 18 317 112 156 160 160 145 145 148 155 160 169 173 172 171 172 176 180 183 187 188 189 193 192 192 196 201 203 209 215 218 218 216 214 218 224 235 240
175 210 221 203 211 251 165 338 303 309 327 32 42 16 127 147 153 132 156 160 150 139 159 170 168 169 174 175 180 180 183 189 193 195 201 207 209 213 219 219 219 227 231 234 233 234 236 233 239
215 231 209 270 237 257 273 274 254 325 310 228 190 180 197 143 157 153 135 169 136 141 148 160 160 169 170 176 175 177 184 189 199 208 210 213 215 215 221 227 227 230 236 244 247 248 247 253 255
255 241 215 246 257 256 221 228 261 201 237 284 300 255 134 180 232 211 112 133 136 146 151 151 164 156 173 186 181 184 191 199 202 209 214 215 217 218 214 216 222 231 237 249 254 259 264 269 271
227 251 253 247 246 257 265 257 227 249 250 261 277 284 278 130 144 99 120 130 141 147 155 157 164 161 152 223 205 203 204 204 205 206 213 215 218 220 211 225 235 235 245 257 262 267 271 271 276
228 234 245 248 250 254 249 264 167 237 243 265 251 255 266 226 178 120 128 141 147 156 158 161 169 188 183 205 214 215 212 212 213 208 217 215 218 217 212 232 238 235 244 258 266 277 283 287 297
235 263 261 240 230 238 202 258 244 206 244 216 247 245 242 232 203 160 153 158 160 167 164 173 177 180 195 201 216 201 219 216 210 204 209 212 216 218 220 241 236 234 231 234 233 236 285 257 66
211 236 248 254 229 246 172 254 236 229 210 234 232 242 237 236 216 183 157 160 166 171 173 170 180 190 199 212 212 210 215 223 219 211 216 220 220 218 221 226 222 219 225 219 225 226 241 274 290
235 245 227 266 200 218 202 252 242 233 212 244 236 236 232 229 222 161 160 162 170 172 177 178 186 196 204 199 193 194 209 208 214 203 200 208 222 219 226 235 234 242 247 262 253 240 229 244 302
224 210 204 200 239 199 240 253 256 259 222 225 232 235 212 212 219 161 163 167 174 181 186 186 189 200 195 187 200 201 215 224 204 209 225 211 189 209 237 256 256 250 275 277 234 232 256 257 257
234 227 240 225 244 229 243 249 241 252 214 241 242 227 213 212 223 152 163 175 172 174 182 185 183 185 188 195 208 209 221 219 214 186 174 187 206 224 254 261 269 262 263 244 245 220 214 234 249
225 223 240 278 258 180 251 249 231 236 236 204 219 202 197 221 106 119 159 153 156 163 177 182 188 188 196 197 195 202 201 212 220 217 196 176 243 274 266 253 253 247 236 241 239 249 248 254 222
218 220 221 230 276 247 259 263 244 235 187 161 194 208 159 175 124 114 119 125 147 157 165 173 177 175 181 187 199 207 191 177 140 125 131 138 118 220 263 285 277 255 248 256 253 260 256 268 272
225 204 227 240 251 245 162 257 259 216 169 157 125 121 119 115 106 109 109 106 118 129 149 147 147 160 170 187 191 173 153 124 109 104 101 115 99 89 91 94 114 242 255 266 254 263 262 268 266
225 225 231 236 217 217 242 96 269 237 183 177 155 98 114 125 122 112 104 104 104 114 120 115 110 118 125 136 159 151 118 114 116 114 105 98 96 98 97 98 107 117 119 34 293 271 263 275 273
215 232 232 232 204 237 237 152 268 197 209 196 96 128 129 114 112 103 103 106 107 114 112 112 111 103 112 117 118 122 122 121 116 113 105 102 97 98 93 88 82 68 40 338 315 305 300 304 300
213 220 236 248 216 227 215 163 214 219 246 197 134 136 123 118 115 118 118 114 111 109 109 106 106 103 103 106 107 108 108 109 104 101 99 103 104 94 73 45 15 351 333 324 313 307 304 306 305
224 216 178 201 172 188 217 202 229 198 179 112 129 141 133 136 129 121 117 113 113 112 112 111 107 105 105 107 104 104 107 105 100 96 96 90 85 70 37 26 17 357 339 326 319 317 311 306 303
226 217 194 126 349 109 250 333 35 13 143 123 134 139 136 133 130 123 117 112 113 115 113 108 106 104 106 106 102 103 107 107 105 99 87 72 53 42 24 10 3 349 331 320 314 309 303 300 298
211 200 180 315 147 157 255 188 200 33 359 146 141 136 133 131 127 122 119 114 111 113 111 109 109 109 107 103 99 106 109 107 99 95 82 64 53 38 11 356 343 336 327 322 318 318 307 301 301
181 208 195 123 153 148 158 248 179 128 78 336 116 140 140 136 132 130 124 110 113 114 106 103 101 97 93 96 104 115 119 114 108 93 58 32 11 355 350 352 343 336 328 319 303 305 300 289 287
297 300 181 178 174 132 145 240 100 135 98 52 67 112 132 128 136 140 113 111 109 103 94 89 82 75 66 67 83 104 109 97 77 32 23 355 340 337 331 337 333 330 323 315 307 306 303 293 292